Regional Weather Roundup
Issued by NWS Charleston, SC

Current Version | Previous Version | Text Only | Print | Product List | Glossary Off
Versions: 1 2 3 4 5 6 7 8 9 10 11 12 13 14 15 16 17 18 19 20 21 22 23 24 25 26 27 28 29 30 31 32 33 34 35 36 37 38 39 40 41 42 43 44 45 46 47 48 49 50

000
ASUS42 KCHS 011927
RWRCHS

REGIONAL WEATHER ROUNDUP
NATIONAL WEATHER SERVICE CHARLESTON SC
300 PM EDT SAT AUG 01 2015

NOTE: "FAIR" INDICATES FEW OR NO CLOUDS BELOW 12,000 FEET WITH NO
SIGNIFICANT WEATHER AND/OR OBSTRUCTIONS TO VISIBILITY.

NOT ALL STATIONS ARE QUALITY CONTROLLED BY THE NATIONAL
WEATHER SERVICE. USE DATA WITH CAUTION...ESPECIALLY
DEWPOINT OBSERVATIONS.

SCZ027-030-031-034>040-042>050-012000-
...SOUTHEAST SOUTH CAROLINA...

CITY           SKY/WX    TMP DP  RH WIND       PRES   REMARKS
N CHARLESTON   PTSUNNY   84  74  71 S13       29.93F HX  91
WATERFRONT PRK   N/A     78  76  94 S9        29.91F
MOUNT PLEASANT FAIR      84  75  74 S8        29.93F HX  92
JOHNS ISLAND   FAIR      79  77  94 CALM      29.92F
PINOPOLIS      NOT AVBL
MONCKS CORNER  FAIR      88  75  66 S8        29.91F HX  97
SUMMERVILLE    MOCLDY    82  77  83 SE8       29.93S HX  91
BEAUFORT MCAS  TSTM      75  73  93 E16G26    29.93R
BEAUFORT ARPT  TSTM      73  72  94 E25G33    29.95R VSB 3/4
HILTON HEAD IS MOSUNNY   84  73  70 SE8       29.93S HX  91
WALTERBORO     PTCLDY    81  73  78 SE9       29.93S
ALLENDALE      MOCLDY    91  73  55 VRB5      29.88F HX 100

...SOUTHERN MIDLANDS AND PEE DEE...

CITY           SKY/WX    TMP DP  RH WIND       PRES   REMARKS
GEORGETOWN     NOT AVBL
KINGSTREE      NOT AVBL
ORANGEBURG     PTSUNNY   92  65  40 E8        29.90F HX  94
BARNWELL       FAIR      93  70  46 E6        29.90F HX  99
AIKEN          CLOUDY    91  55  29 NE8       29.95S
MANNING        RAIN      91  64  40 E7        29.90S HX  93
COLUMBIA       MOSUNNY   94  59  31 S3        29.90F HX  93
SUMTER         MOSUNNY   94  60  32 VRB5      29.88F HX  93
FLORENCE       PTSUNNY   95  62  33 SE7       29.90F HX  96
MYRTLE BEACH   MOSUNNY   88  73  62 S12       29.93F HX  96
N MYRTLE BEACH MOSUNNY   85  76  74 S15       29.92F HX  94

$$

GAZ063-065-086>088-099>101-113>116-118-119-134>141-150-012000-
...SOUTHEAST GEORGIA...

CITY           SKY/WX    TMP DP  RH WIND       PRES   REMARKS
SAVANNAH ARPT  PTSUNNY   90  74  59 S7        29.89F HX  99
HUNTER AAF     SUNNY     83  81  95 SE3       29.87F HX  96
FORT STEWART   MOSUNNY   90  75  62 E10       29.81F HX 100
STATESBORO     MOSUNNY   89  78  68 NE3       29.88F HX 102
SYLVANIA       TSTM      78  75  90 NE13G23   29.92R
CLAXTON        NOT AVBL

...CSRA...CENTRAL AND FAR SOUTHEAST GEORGIA...

CITY           SKY/WX    TMP DP  RH WIND       PRES   REMARKS
THOMSON        PTSUNNY   87  70  57 N6        29.97F HX  92
AUGUSTA-BUSH   MOSUNNY   93  68  43 VRB3      29.89F HX  97
AUGUSTA-DANIEL MOSUNNY   93  65  39 E5        29.92F HX  95
SWAINSBORO     FAIR      91  73  55 NE5       29.91F HX 100
VIDALIA        MOSUNNY   90  73  58 SE6       29.89S HX  98
EASTMAN        FAIR      93  74  54 NE5       29.91F HX 102
HAZLEHURST     FAIR      91  76  60 SE6       29.87F HX 103
ALMA           MOSUNNY   90  73  57 VRB3      29.88F HX  98
WAYCROSS       MOSUNNY   91  80  68 E9        29.87F HX 108
JESUP          FAIR      91  77  62 E6        29.88F HX 105
BAXLEY         FAIR      91  73  55 E6        29.88F HX 100
BRUNSWICK      CLOUDY    86  73  66 SE9       29.90F HX  93
SAINT SIMONS   MOSUNNY   85  75  72 E9        29.90F HX  93

$$

SCZ027-028-034-036>038-045-046-048>050-GAZ119-141-012000-
...LAKE AND SUPPLEMENTAL COASTAL OBSERVATIONS...

STATION/POSITION TIME  TEMP    WIND        PRES    WAVE   SWELL
                       AIR SEA DIR/SP/G            HT/PER HT/PER/DIR
                 (UTC) (F)     (DEG/KT/KT) (MB)    (FT/S) (FT/S/D)
UPR LAKE MARION  NOT AVBL
WINYAH BAY       1800   83     140/  8     1013.0F
LAKE MURRAY      1800   90     100/  3/  7 1012.9F
ACE BASIN NERRS  1745   79      50/  7     1014.0
FORT PULASKI     1900   85 87  140/  8/ 12 1012.9F
SAPELO ISLAND    1900   89     140/  7     1012.0F

$$

ANZ835-935-AMZ111-154-330-350-352-354-370-450-454-472-012000-
...C-MAN AND BUOY OBSERVATIONS...

STATION/POSITION TIME  TEMP    WIND        PRES    WAVE   SWELL
                       AIR SEA DIR/SP/G            HT/PER HT/PER/DIR
                 (UTC) (F)     (DEG/KT/KT) (MB)    (FT/S) (FT/S/D)
BUOY 41004       1850   79 84  210/  6/  8 1013.0F   4/ 6   3/ 6
BUOY 41008       1850   81 84  180/  8/ 10 1013.1F   3/ 6   3/150/ 6
FOLLY BEACH CMAN 1900   79     170/  8/ 10 1013.5F
CAPERS NEARSHORE 1808   80     170/ 14/ 17 1014.2F
FRIPP NEARSHORE  1800   85     160/ 10/ 12 1013.5F


STATION/POSITION TIME  TEMP    WIND        PRES    WAVE   SWELL
                       AIR SEA DIR/SP/G            HT/PER HT/PER/DIR
                 (UTC) (F)     (DEG/KT/KT) (MB)    (FT/S) (FT/S/D)
5E ST. MARYS GA  1821      85                N/A     3/ 6
FRYING PAN BUOY  1850   81 83  230/ 10/ 12 1013.9F   4/ 7   3/170/ 7
BUOY 41025       1850   81 85  170/ 12/ 12 1013.1R   3/ 8   3/160/ 8
CAPE LOOKOUT NC  1900   83     230/  7/  9 1012.6S
BUOY 41002       1850   83 81  230/ 17/ 19 1016.1F   6/ 7   2/110/11
BUOY 41010       1820   82 84  180/ 12/ 14 1016.0F
ST AUGUSTINE FL  1900   77 82  210/  8/ 11 1013.4F


$$


USA.gov is the U.S. government's official web portal to all federal, state and local government web resources and services.